sat.trackr.live / text

‹ back to catalog

STARLINK-2732

NORAD 48646 · 2021-044J

PAYLOAD ACTIVE UNKNOWN

§ Identity

Operator
Country
US
Launch date
2021-05-26
Launch site
AFETR
Launch vehicle
Mass (kg)
RCS (m²)

Purposes: comms

External: N2YO · Heavens-Above · Gunter

§ Orbital elements

Epoch: 2026-05-25T05:14:07.481760Z

Period
94.01 min
Inclination
53.1577°
Eccentricity
0.0001238
Mean motion
15.31701722 rev/d
Perigee alt
469.9 km
Apogee alt
471.6 km
Semi-major
6,848.9 km
B*
8.1071e-6
RAAN
117.9480°
Arg perigee
95.9256°
Mean anomaly
264.1887°
Rev number
27,555

§ Raw data

STARLINK-27321 48646U 21044J   26145.21814215 -.00000114  00000+0  81071-5 0  99992 48646  53.1577 117.9480 0001238  95.9256 264.1887 15.31701722275557

JSON: /api/v1/satellites/48646 · /tle

For live sub-satellite position, see the globe view (requires WebGL).

§ Visibility from observer

Set your observer location to see the next 7 days of passes ≥ 10°. The values pass through the URL so the page stays shareable.

No JS? Fill the form by hand. The geolocation button needs JavaScript.